Weather in Bassano del Grappa

Italy     45°46′08″N   11°44′38″E
temp.,
°C
wind,
m/s
gust,
m/s
humid.,
%
clouds,
%
prec.,
mm/h
press.,
hPa
HPBL,
m
17 june, thu
thu1723:00+20n22775 0.1 101718
02:00+19n22785 0.1 101717
05:00+19n22815 0.0 101616
08:00+22ssw11715 0.0 1017191
11:00+25s21640 0.0 1017728
14:00+27sse225617 0.3 10161333
17:00+28sw125627 0.6 10151377
20:00+23ene348018 0.8 101698
18 june, fri
fri1823:00+21nnw227933 0.0 101713
02:00+21nne117767 0.1 101714
05:00+20ne118050 0.0 101712
08:00+22se117836 0.0 1017256
11:00+25sse216334 0.0 1017835
14:00+27sse225630 0.0 10171287
17:00+27sse325868 0.1 10151166
20:00+23e117726 0.1 101523
19 june, sat
sat1923:00+20n118294 0.0 101714
02:00+20nnw11845 0.0 101614
05:00+19n11825 0.0 101615
08:00+22s117319 0.0 1017220
11:00+26sse216584 0.0 1015668
14:00+28s215981 0.0 1015915
17:00+29sse21545 0.0 1014804
20:00+26ene117066 0.1 101411
20 june, sun
sun2023:00+22n227720 0.0 101418
02:00+21nnw227535 0.0 101415
05:00+21n227362 0.0 101417
08:00+24sw116873 0.0 1014172
11:00+27s326578 0.0 1013670
14:00+29ssw2355100 0.0 1011992
17:00+30s3452100 0.0 10101020
20:00+26e227924 0.1 100954
21 june, mon
mon2123:00+23n2280100 0.1 101036
02:00+21nne22785 0.1 100920
05:00+20n22799 0.0 101024
08:00+24s126913 0.0 1010219
11:00+26se216923 0.0 1010712
14:00+29ese325880 0.0 1009984
17:00+29ese21582 0.1 1009990
20:00+26se11770 0.9 100817